Location: Spruce Knob
(38.6995°N, 79.5330°W)
Time: 10:07:16
(UTC-05:00)

Tiangong - Visible Passes

Search period start: 27 November 2021 00:00
Search period end: 07 December 2021 00:00
Orbit: 381 x 385 km, 41.5° (Epoch: 27 November)

Date Brightness Start Highest point End Pass type
(mag) Time Alt. Az. Time Alt. Az. Time Alt. Az.
27 Nov 3.4 05:08:38 20° SSE 05:08:38 20° SSE 05:09:52 10° SE visible
28 Nov 3.6 05:43:40 11° SSW 05:43:40 11° SSW 05:44:23 10° SSW visible
05 Dec 3.7 18:26:22 10° SSE 18:26:37 10° SSE 18:26:37 10° SSE visible
06 Dec 3.4 19:00:09 10° SW 19:01:24 19° SSW 19:01:24 19° SSW visible
